Weather History for Dodge City, KS

Change the Weather History Date:

Sunday, March 31, 2013

  Actual Average Record
Temperature  
Mean Temperature 52 °F -  
Max Temperature 64 °F 61 °F 93 °F (1946)
Min Temperature 39 °F 33 °F 6 °F (1931)
Degree Days  
Heating Degree Days 14    
Growing Degree Days 2 (Base 50)    
Moisture  
Dew Point 35 °F    
Average Humidity 65    
Maximum Humidity 100    
Minimum Humidity 11    
Precipitation  
Precipitation 0.02 in - - ()
Sea Level Pressure  
Sea Level Pressure 30.03 in    
Wind  
Wind Speed 10 mph (NNW)    
Max Wind Speed 20 mph    
Max Gust Speed 16 mph    
Visibility 7 miles    
Events Fog , Rain    
Averages and records for this station are not official NWS values.
T = Trace of Precipitation, MM = Missing Value Source: NWS Daily Summary

Daily Weather History Graph

Daily Weather History Graph

Search for Another Location

Airport:

Trip Planner

Search our weather history database for the weather conditions in past years. The results will help you decide how hot, cold, wet, or windy it might be!

Date:

Astronomy

Mar. 31, 2013 Rise Set
Actual Time 7:26 AM CDT 8:02 PM CDT
Civil Twilight 6:59 AM CDT 8:28 PM CDT
Nautical Twilight 6:28 AM CDT 8:59 PM CDT
Astronomical Twilight 5:56 AM CDT 9:31 PM CDT
Moon 12:05 AM CDT (3/31) 10:20 AM CDT (3/31)
Length of Visible Light 13h 28m
Length of Day
12h 35m
Waning Gibbous, 77% of the Moon is Illuminated
Mar 31
Waning Gibbous
Apr 2
Last Quarter
Apr 10
New
Apr 18
First Quarter
Apr 25
Full

Hourly Weather History & Observations

Time (CDT) Temp. Windchill Dew Point Humidity Pressure Visibility Wind Dir Wind Speed Gust Speed Precip Events Conditions
12:52 AM 48.9 °F - 45.0 °F 86% 30.05 in 10.0 mi North 19.6 mph - 0.00 in   Mostly Cloudy
1:52 AM 48.9 °F - 45.0 °F 86% 30.05 in 7.0 mi NW 6.9 mph - 0.01 in Rain Light Rain
2:52 AM 48.9 °F - 44.1 °F 83% 30.04 in 10.0 mi North 12.7 mph - 0.01 in   Mostly Cloudy
3:52 AM 46.0 °F 43.9 °F 44.1 °F 93% 30.04 in 7.0 mi NNW 4.6 mph - N/A   Clear
4:35 AM 42.8 °F 38.6 °F 41.0 °F 93% 30.06 in 1.8 mi NNW 6.9 mph - N/A   Partly Cloudy
4:37 AM 42.8 °F 39.3 °F 41.0 °F 93% 30.06 in 1.0 mi NNW 5.8 mph - N/A   Mist
4:45 AM 41.0 °F 37.1 °F 39.2 °F 93% 30.06 in 0.8 mi NNW 5.8 mph - N/A   Mist
4:49 AM 41.0 °F 38.0 °F 39.2 °F 93% 30.06 in 1.2 mi NNW 4.6 mph - N/A   Partly Cloudy
4:52 AM 41.0 °F 39.0 °F 39.0 °F 93% 30.03 in 1.5 mi NNW 3.5 mph - N/A   Partly Cloudy
4:54 AM 39.2 °F 37.0 °F 39.2 °F 100% 30.06 in 1.0 mi NNW 3.5 mph - N/A   Mist
4:56 AM 39.2 °F 35.9 °F 39.2 °F 100% 30.06 in 0.8 mi NNW 4.6 mph - N/A   Mist
5:07 AM 39.2 °F 34.2 °F 39.2 °F 100% 30.07 in 0.2 mi NNW 6.9 mph - N/A Fog Fog
5:22 AM 39.2 °F 35.9 °F 39.2 °F 100% 30.07 in 1.0 mi NNW 4.6 mph - N/A   Mist
5:24 AM 39.2 °F 35.0 °F 39.2 °F 100% 30.08 in 1.8 mi NNW 5.8 mph - N/A   Scattered Clouds
5:26 AM 39.2 °F 35.0 °F 39.2 °F 100% 30.07 in 3.0 mi NNW 5.8 mph - N/A   Scattered Clouds
5:52 AM 39.9 °F 34.5 °F 37.9 °F 93% 30.05 in 7.0 mi NNW 8.1 mph - N/A   Clear
6:52 AM 41.0 °F 34.7 °F 39.9 °F 96% 30.06 in 7.0 mi NNW 10.4 mph - N/A   Clear
7:52 AM 39.9 °F 33.9 °F 37.9 °F 93% 30.09 in 8.0 mi NNW 9.2 mph - N/A   Clear
8:52 AM 45.0 °F 39.3 °F 39.9 °F 82% 30.11 in 10.0 mi NW 11.5 mph - N/A   Clear
9:52 AM 50.0 °F - 39.9 °F 68% 30.10 in 10.0 mi North 9.2 mph - N/A   Clear
10:52 AM 53.1 °F - 37.9 °F 57% 30.07 in 10.0 mi North 8.1 mph - N/A   Clear
11:52 AM 57.9 °F - 35.1 °F 42% 30.06 in 10.0 mi North 12.7 mph - N/A   Clear
12:52 PM 60.1 °F - 33.1 °F 36% 30.06 in 10.0 mi Variable 6.9 mph 16.1 mph N/A   Clear
1:52 PM 62.1 °F - 28.9 °F 29% 30.03 in 10.0 mi NNW 8.1 mph - N/A   Clear
2:52 PM 63.0 °F - 27.0 °F 26% 30.01 in 10.0 mi Calm Calm - N/A   Clear
3:52 PM 63.0 °F - 24.1 °F 23% 29.99 in 10.0 mi Calm Calm - N/A   Clear
4:52 PM 64.9 °F - 24.1 °F 21% 29.96 in 10.0 mi Variable 4.6 mph - N/A   Clear
5:52 PM 64.9 °F - 23.0 °F 20% 29.94 in 10.0 mi SSW 4.6 mph - N/A   Clear
6:52 PM 64.9 °F - 24.1 °F 21% 29.94 in 10.0 mi SW 5.8 mph - N/A   Clear
7:52 PM 57.9 °F - 26.1 °F 30% 29.95 in 10.0 mi South 4.6 mph - N/A   Clear
8:52 PM 50.0 °F - 27.0 °F 41% 29.95 in 9.0 mi SSE 9.2 mph - N/A   Clear
9:52 PM 48.9 °F - 27.0 °F 43% 29.95 in 10.0 mi SSE 10.4 mph - N/A   Clear
10:52 PM 50.0 °F - 26.1 °F 39% 29.94 in 10.0 mi South 15.0 mph - N/A   Clear
11:52 PM 48.0 °F - 26.1 °F 42% 29.94 in 10.0 mi South 15.0 mph - N/A   Clear